KUIPER-00203

Last updated on Sun Mar 15 2026 00:02:06 GMT+0000 (Coordinated Universal Time)

1 67773U 26030K 26073.58335648 -.00013087 00000+0 -85816-3 0 9992 2 67773 51.8895 197.4486 0011865 78.4231 44.0972 15.06431134 4405
UTC large
Height (km)
Speed (km/s)
/
Latitude / Longitude
Inclination (degrees)
Orbital Period (minutes)
Azimuth
Elevation
Range (km)
Doppler Factor

Next 0 passes for location: London (51.5072 / 0.1276)

Sorry there are no passes over London.